contact:dominique.lefevre@mio.osupytheas.fr, maurice.libes@osupytheas.fr, didier.mallarino@osupytheas.fr
Project:EMSO http://www.emso-fr.org/EMSO-France
Depth: 2436.0 m
Title:EMSO Ligure Ouest : Data MII capteur MICROCAT
DateTime_Computer,Latitude,Longitude,Temperature,Conductivity,Pressure,DateTime_Instrument
DateTime_Computer,Latitude,Longitude,degC,S m-1,dbar,DateTime_Instrument
2020-12-12T00:00:22Z,42.805,6.029,13.2981,4.59996,2470.063,2020-12-12T02:01:20Z
2020-12-12T00:03:25Z,42.805,6.029,13.2981,4.59988,2470.04,2020-12-12T02:04:24Z
2020-12-12T00:06:28Z,42.805,6.029,13.2982,4.59995,2470.077,2020-12-12T02:07:27Z
2020-12-12T00:09:31Z,42.805,6.029,13.2983,4.59988,2470.053,2020-12-12T02:10:30Z
2020-12-12T00:12:34Z,42.805,6.029,13.2984,4.59996,2470.04,2020-12-12T02:13:33Z
2020-12-12T00:15:37Z,42.805,6.029,13.2980,4.59990,2470.063,2020-12-12T02:16:36Z
2020-12-12T00:18:40Z,42.805,6.029,13.2982,4.59996,2470.04,2020-12-12T02:19:39Z
2020-12-12T00:21:44Z,42.805,6.029,13.2984,4.59993,2470.017,2020-12-12T02:22:42Z
2020-12-12T00:24:47Z,42.805,6.029,13.2983,4.59991,2470.04,2020-12-12T02:25:45Z
2020-12-12T00:27:50Z,42.805,6.029,13.2984,4.59991,2470.053,2020-12-12T02:28:48Z
2020-12-12T00:30:53Z,42.805,6.029,13.2986,4.59994,2470.063,2020-12-12T02:31:52Z
2020-12-12T00:33:56Z,42.805,6.029,13.2983,4.59995,2470.063,2020-12-12T02:34:55Z
2020-12-12T00:36:59Z,42.805,6.029,13.2983,4.59997,2470.04,2020-12-12T02:37:58Z
2020-12-12T00:40:02Z,42.805,6.029,13.2984,4.59995,2470.053,2020-12-12T02:41:01Z
2020-12-12T00:43:05Z,42.805,6.029,13.2982,4.59985,2470.077,2020-12-12T02:44:04Z
2020-12-12T00:46:09Z,42.805,6.029,13.2982,4.59991,2470.1,2020-12-12T02:47:07Z
2020-12-12T00:49:12Z,42.805,6.029,13.2982,4.59991,2470.063,2020-12-12T02:50:10Z
2020-12-12T00:52:15Z,42.805,6.029,13.2981,4.59991,2470.077,2020-12-12T02:53:13Z
2020-12-12T00:55:18Z,42.805,6.029,13.2981,4.59989,2470.026,2020-12-12T02:56:17Z
2020-12-12T00:58:21Z,42.805,6.029,13.2977,4.59995,2470.04,2020-12-12T02:59:20Z
2020-12-12T01:01:24Z,42.805,6.029,13.2986,4.60002,2470.077,2020-12-12T03:02:23Z
2020-12-12T01:04:27Z,42.805,6.029,13.2984,4.59996,2470.087,2020-12-12T03:05:26Z
2020-12-12T01:07:30Z,42.805,6.029,13.2980,4.60001,2470.077,2020-12-12T03:08:29Z
2020-12-12T01:10:34Z,42.805,6.029,13.2983,4.59993,2470.063,2020-12-12T03:11:32Z
2020-12-12T01:13:37Z,42.805,6.029,13.2983,4.59996,2470.087,2020-12-12T03:14:35Z
2020-12-12T01:16:40Z,42.805,6.029,13.2982,4.59987,2470.11,2020-12-12T03:17:38Z
2020-12-12T01:19:43Z,42.805,6.029,13.2983,4.59988,2470.063,2020-12-12T03:20:42Z
2020-12-12T01:22:46Z,42.805,6.029,13.2981,4.59989,2470.11,2020-12-12T03:23:45Z
2020-12-12T01:25:49Z,42.805,6.029,13.2982,4.59996,2470.087,2020-12-12T03:26:48Z
2020-12-12T01:28:52Z,42.805,6.029,13.2984,4.59997,2470.124,2020-12-12T03:29:51Z
2020-12-12T01:31:55Z,42.805,6.029,13.2984,4.60001,2470.1,2020-12-12T03:32:54Z
2020-12-12T01:34:59Z,42.805,6.029,13.2982,4.59990,2470.087,2020-12-12T03:35:57Z
2020-12-12T01:38:02Z,42.805,6.029,13.2984,4.60009,2470.11,2020-12-12T03:39:00Z
2020-12-12T01:41:05Z,42.805,6.029,13.2982,4.59991,2470.11,2020-12-12T03:42:03Z
2020-12-12T01:44:08Z,42.805,6.029,13.2981,4.59995,2470.11,2020-12-12T03:45:07Z
2020-12-12T01:47:11Z,42.805,6.029,13.2980,4.59998,2470.087,2020-12-12T03:48:10Z
2020-12-12T01:50:14Z,42.805,6.029,13.2986,4.59991,2470.147,2020-12-12T03:51:13Z
2020-12-12T01:53:17Z,42.805,6.029,13.2986,4.59993,2470.11,2020-12-12T03:54:16Z
2020-12-12T01:56:20Z,42.805,6.029,13.2982,4.59991,2470.147,2020-12-12T03:57:19Z
2020-12-12T01:59:24Z,42.805,6.029,13.2983,4.59992,2470.133,2020-12-12T04:00:22Z
2020-12-12T02:02:27Z,42.805,6.029,13.2986,4.59993,2470.133,2020-12-12T04:03:25Z
2020-12-12T02:05:30Z,42.805,6.029,13.2984,4.59999,2470.133,2020-12-12T04:06:28Z
2020-12-12T02:08:33Z,42.805,6.029,13.2983,4.59993,2470.156,2020-12-12T04:09:32Z
2020-12-12T02:11:36Z,42.805,6.029,13.2989,4.59997,2470.133,2020-12-12T04:12:35Z
2020-12-12T02:14:39Z,42.805,6.029,13.2988,4.59999,2470.171,2020-12-12T04:15:38Z
2020-12-12T02:17:42Z,42.805,6.029,13.2982,4.59994,2470.171,2020-12-12T04:18:41Z
2020-12-12T02:20:45Z,42.805,6.029,13.2989,4.59991,2470.143,2020-12-12T04:21:44Z
2020-12-12T02:23:48Z,42.805,6.029,13.2984,4.59997,2470.133,2020-12-12T04:24:47Z
2020-12-12T02:26:52Z,42.805,6.029,13.2986,4.60003,2470.171,2020-12-12T04:27:50Z
2020-12-12T02:29:55Z,42.805,6.029,13.2984,4.59999,2470.18,2020-12-12T04:30:53Z
2020-12-12T02:32:58Z,42.805,6.029,13.2982,4.59996,2470.24,2020-12-12T04:33:57Z
2020-12-12T02:36:01Z,42.805,6.029,13.2988,4.59999,2470.156,2020-12-12T04:37:00Z
2020-12-12T02:39:04Z,42.805,6.029,13.2983,4.59996,2470.156,2020-12-12T04:40:03Z
2020-12-12T02:42:07Z,42.805,6.029,13.2985,4.59997,2470.143,2020-12-12T04:43:06Z
2020-12-12T02:45:10Z,42.805,6.029,13.2983,4.59996,2470.18,2020-12-12T04:46:09Z
2020-12-12T02:48:13Z,42.805,6.029,13.2986,4.59993,2470.18,2020-12-12T04:49:12Z
2020-12-12T02:51:17Z,42.805,6.029,13.2981,4.60002,2470.194,2020-12-12T04:52:15Z
2020-12-12T02:54:20Z,42.805,6.029,13.2990,4.59997,2470.217,2020-12-12T04:55:18Z
2020-12-12T02:57:23Z,42.805,6.029,13.2987,4.59999,2470.203,2020-12-12T04:58:21Z
2020-12-12T03:00:26Z,42.805,6.029,13.2979,4.59994,2470.203,2020-12-12T05:01:25Z
2020-12-12T03:03:29Z,42.805,6.029,13.2981,4.59995,2470.217,2020-12-12T05:04:28Z
2020-12-12T03:06:32Z,42.805,6.029,13.2984,4.59993,2470.217,2020-12-12T05:07:31Z
2020-12-12T03:09:35Z,42.805,6.029,13.2985,4.59992,2470.194,2020-12-12T05:10:34Z
2020-12-12T03:12:38Z,42.805,6.029,13.2982,4.59994,2470.217,2020-12-12T05:13:37Z
2020-12-12T03:15:42Z,42.805,6.029,13.2990,4.60001,2470.166,2020-12-12T05:16:40Z
2020-12-12T03:18:45Z,42.805,6.029,13.2986,4.60002,2470.227,2020-12-12T05:19:43Z
2020-12-12T03:21:48Z,42.805,6.029,13.2981,4.59997,2470.194,2020-12-12T05:22:46Z
2020-12-12T03:24:51Z,42.805,6.029,13.2984,4.59998,2470.217,2020-12-12T05:25:50Z
2020-12-12T03:27:54Z,42.805,6.029,13.2983,4.59996,2470.203,2020-12-12T05:28:53Z
2020-12-12T03:30:57Z,42.805,6.029,13.2984,4.59991,2470.264,2020-12-12T05:31:56Z
2020-12-12T03:34:00Z,42.805,6.029,13.2982,4.59995,2470.25,2020-12-12T05:34:59Z
2020-12-12T03:37:03Z,42.805,6.029,13.2983,4.59995,2470.227,2020-12-12T05:38:02Z
2020-12-12T03:40:07Z,42.805,6.029,13.2982,4.59991,2470.264,2020-12-12T05:41:05Z
2020-12-12T03:43:10Z,42.805,6.029,13.2982,4.60001,2470.227,2020-12-12T05:44:08Z
2020-12-12T03:46:13Z,42.805,6.029,13.2983,4.59998,2470.227,2020-12-12T05:47:11Z
2020-12-12T03:49:16Z,42.805,6.029,13.2986,4.60000,2470.264,2020-12-12T05:50:15Z
2020-12-12T03:52:19Z,42.805,6.029,13.2988,4.59994,2470.264,2020-12-12T05:53:18Z
2020-12-12T03:55:22Z,42.805,6.029,13.2986,4.59997,2470.203,2020-12-12T05:56:21Z
2020-12-12T03:58:25Z,42.805,6.029,13.2991,4.59998,2470.227,2020-12-12T05:59:24Z
2020-12-12T04:01:28Z,42.805,6.029,13.2984,4.59996,2470.25,2020-12-12T06:02:27Z
2020-12-12T04:04:31Z,42.805,6.029,13.2983,4.59990,2470.227,2020-12-12T06:05:30Z
2020-12-12T04:07:35Z,42.805,6.029,13.2983,4.59994,2470.227,2020-12-12T06:08:33Z
2020-12-12T04:10:38Z,42.805,6.029,13.2986,4.59998,2470.287,2020-12-12T06:11:36Z
2020-12-12T04:13:41Z,42.805,6.029,13.2989,4.60001,2470.227,2020-12-12T06:14:40Z
2020-12-12T04:16:44Z,42.805,6.029,13.2986,4.59990,2470.264,2020-12-12T06:17:43Z
2020-12-12T04:19:47Z,42.805,6.029,13.2986,4.59997,2470.25,2020-12-12T06:20:46Z
2020-12-12T04:22:50Z,42.805,6.029,13.2981,4.59992,2470.25,2020-12-12T06:23:49Z
2020-12-12T04:25:53Z,42.805,6.029,13.2989,4.60011,2470.227,2020-12-12T06:26:52Z
2020-12-12T04:28:56Z,42.805,6.029,13.2991,4.59996,2470.227,2020-12-12T06:29:55Z
2020-12-12T04:32:00Z,42.805,6.029,13.2983,4.59991,2470.25,2020-12-12T06:32:58Z
2020-12-12T04:35:03Z,42.805,6.029,13.2988,4.60008,2470.25,2020-12-12T06:36:01Z
2020-12-12T04:38:06Z,42.805,6.029,13.2990,4.60004,2470.264,2020-12-12T06:39:04Z
2020-12-12T04:41:09Z,42.805,6.029,13.2988,4.59994,2470.25,2020-12-12T06:42:08Z
2020-12-12T04:44:12Z,42.805,6.029,13.2986,4.59998,2470.24,2020-12-12T06:45:11Z
2020-12-12T04:47:15Z,42.805,6.029,13.2982,4.59993,2470.227,2020-12-12T06:48:14Z
2020-12-12T04:50:18Z,42.805,6.029,13.2982,4.59996,2470.273,2020-12-12T06:51:17Z
2020-12-12T04:53:21Z,42.805,6.029,13.2985,4.59996,2470.25,2020-12-12T06:54:20Z
2020-12-12T04:56:25Z,42.805,6.029,13.2986,4.59994,2470.287,2020-12-12T06:57:23Z
2020-12-12T04:59:28Z,42.805,6.029,13.2986,4.59991,2470.25,2020-12-12T07:00:26Z
2020-12-12T05:02:31Z,42.805,6.029,13.2983,4.59996,2470.25,2020-12-12T07:03:29Z
2020-12-12T05:05:34Z,42.805,6.029,13.2988,4.59996,2470.264,2020-12-12T07:06:33Z
2020-12-12T05:08:37Z,42.805,6.029,13.2985,4.59997,2470.273,2020-12-12T07:09:36Z
2020-12-12T05:11:40Z,42.805,6.029,13.2988,4.60000,2470.287,2020-12-12T07:12:39Z
2020-12-12T05:14:43Z,42.805,6.029,13.2981,4.59996,2470.273,2020-12-12T07:15:42Z
2020-12-12T05:17:46Z,42.805,6.029,13.2982,4.59998,2470.287,2020-12-12T07:18:45Z
2020-12-12T05:20:50Z,42.805,6.029,13.2990,4.59996,2470.31,2020-12-12T07:21:48Z
2020-12-12T05:23:53Z,42.805,6.029,13.2985,4.60003,2470.287,2020-12-12T07:24:51Z
2020-12-12T05:26:56Z,42.805,6.029,13.2983,4.60011,2470.25,2020-12-12T07:27:54Z
2020-12-12T05:29:59Z,42.805,6.029,13.2984,4.60001,2470.297,2020-12-12T07:30:58Z
2020-12-12T05:33:02Z,42.805,6.029,13.2986,4.60006,2470.273,2020-12-12T07:34:01Z
2020-12-12T05:36:05Z,42.805,6.029,13.2986,4.60006,2470.264,2020-12-12T07:37:04Z
2020-12-12T05:39:08Z,42.805,6.029,13.2981,4.59996,2470.287,2020-12-12T07:40:07Z
2020-12-12T05:42:11Z,42.805,6.029,13.2987,4.59997,2470.287,2020-12-12T07:43:10Z
2020-12-12T05:45:14Z,42.805,6.029,13.2984,4.60008,2470.273,2020-12-12T07:46:13Z
2020-12-12T05:48:18Z,42.805,6.029,13.2990,4.59996,2470.24,2020-12-12T07:49:16Z
2020-12-12T05:51:21Z,42.805,6.029,13.2983,4.59996,2470.31,2020-12-12T07:52:19Z
2020-12-12T05:54:24Z,42.805,6.029,13.2982,4.59996,2470.287,2020-12-12T07:55:23Z
2020-12-12T05:57:27Z,42.805,6.029,13.2984,4.59992,2470.25,2020-12-12T07:58:26Z
2020-12-12T06:00:30Z,42.805,6.029,13.2979,4.59991,2470.25,2020-12-12T08:01:29Z
2020-12-12T06:03:33Z,42.805,6.029,13.2984,4.60010,2470.31,2020-12-12T08:04:32Z
2020-12-12T06:06:36Z,42.805,6.029,13.2991,4.60000,2470.227,2020-12-12T08:07:35Z
2020-12-12T06:09:39Z,42.805,6.029,13.2983,4.60008,2470.25,2020-12-12T08:10:38Z
2020-12-12T06:12:43Z,42.805,6.029,13.2985,4.59992,2470.273,2020-12-12T08:13:41Z
2020-12-12T06:15:46Z,42.805,6.029,13.2983,4.59997,2470.273,2020-12-12T08:16:44Z
2020-12-12T06:18:49Z,42.805,6.029,13.2981,4.60013,2470.264,2020-12-12T08:19:48Z
2020-12-12T06:21:52Z,42.805,6.029,13.2984,4.59996,2470.25,2020-12-12T08:22:51Z
2020-12-12T06:24:55Z,42.805,6.029,13.2985,4.60011,2470.25,2020-12-12T08:25:54Z
2020-12-12T06:27:58Z,42.805,6.029,13.2986,4.59996,2470.24,2020-12-12T08:28:57Z
2020-12-12T06:31:01Z,42.805,6.029,13.2983,4.59992,2470.227,2020-12-12T08:32:00Z
2020-12-12T06:34:04Z,42.805,6.029,13.2986,4.59993,2470.25,2020-12-12T08:35:03Z
2020-12-12T06:37:08Z,42.805,6.029,13.2984,4.59991,2470.287,2020-12-12T08:38:06Z
2020-12-12T06:40:11Z,42.805,6.029,13.2979,4.59992,2470.25,2020-12-12T08:41:09Z
2020-12-12T06:43:14Z,42.805,6.029,13.2985,4.59993,2470.25,2020-12-12T08:44:13Z
2020-12-12T06:46:17Z,42.805,6.029,13.2983,4.59995,2470.24,2020-12-12T08:47:16Z
2020-12-12T06:49:20Z,42.805,6.029,13.2980,4.59992,2470.25,2020-12-12T08:50:19Z
2020-12-12T06:52:23Z,42.805,6.029,13.2985,4.60000,2470.297,2020-12-12T08:53:22Z
2020-12-12T06:55:26Z,42.805,6.029,13.2984,4.59996,2470.227,2020-12-12T08:56:25Z
2020-12-12T06:58:29Z,42.805,6.029,13.2983,4.59991,2470.203,2020-12-12T08:59:28Z
2020-12-12T07:01:33Z,42.805,6.029,13.2984,4.59994,2470.227,2020-12-12T09:02:31Z
2020-12-12T07:04:36Z,42.805,6.029,13.2985,4.59992,2470.25,2020-12-12T09:05:34Z
2020-12-12T07:07:39Z,42.805,6.029,13.2982,4.59994,2470.264,2020-12-12T09:08:37Z
2020-12-12T07:10:42Z,42.805,6.029,13.2982,4.59996,2470.227,2020-12-12T09:11:41Z
2020-12-12T07:13:45Z,42.805,6.029,13.2987,4.60004,2470.24,2020-12-12T09:14:44Z
2020-12-12T07:16:48Z,42.805,6.029,13.2980,4.59991,2470.264,2020-12-12T09:17:47Z
2020-12-12T07:19:51Z,42.805,6.029,13.2990,4.59994,2470.24,2020-12-12T09:20:50Z
2020-12-12T07:22:54Z,42.805,6.029,13.2982,4.59994,2470.264,2020-12-12T09:23:53Z
2020-12-12T07:25:58Z,42.805,6.029,13.2984,4.59995,2470.227,2020-12-12T09:26:56Z
2020-12-12T07:29:01Z,42.805,6.029,13.2979,4.59994,2470.227,2020-12-12T09:29:59Z
2020-12-12T07:32:04Z,42.805,6.029,13.2982,4.59994,2470.203,2020-12-12T09:33:02Z
2020-12-12T07:35:07Z,42.805,6.029,13.2989,4.59995,2470.18,2020-12-12T09:36:06Z
2020-12-12T07:38:10Z,42.805,6.029,13.2979,4.59996,2470.203,2020-12-12T09:39:09Z
2020-12-12T07:41:13Z,42.805,6.029,13.2986,4.59993,2470.217,2020-12-12T09:42:12Z
2020-12-12T07:44:16Z,42.805,6.029,13.2983,4.59991,2470.227,2020-12-12T09:45:15Z
2020-12-12T07:47:19Z,42.805,6.029,13.2991,4.60001,2470.18,2020-12-12T09:48:18Z
2020-12-12T07:50:23Z,42.805,6.029,13.2990,4.59999,2470.203,2020-12-12T09:51:21Z
2020-12-12T07:53:26Z,42.805,6.029,13.2987,4.59996,2470.217,2020-12-12T09:54:24Z
2020-12-12T07:56:29Z,42.805,6.029,13.2980,4.59990,2470.227,2020-12-12T09:57:27Z
2020-12-12T07:59:32Z,42.805,6.029,13.2986,4.59997,2470.217,2020-12-12T10:00:31Z
2020-12-12T08:02:35Z,42.805,6.029,13.2982,4.59991,2470.213,2020-12-12T10:03:34Z
2020-12-12T08:05:38Z,42.805,6.029,13.2981,4.59991,2470.217,2020-12-12T10:06:37Z
2020-12-12T08:08:41Z,42.805,6.029,13.2984,4.59995,2470.203,2020-12-12T10:09:40Z
2020-12-12T08:11:44Z,42.805,6.029,13.2986,4.59999,2470.227,2020-12-12T10:12:43Z
2020-12-12T08:14:48Z,42.805,6.029,13.2984,4.59995,2470.227,2020-12-12T10:15:46Z
2020-12-12T08:17:51Z,42.805,6.029,13.2979,4.59992,2470.18,2020-12-12T10:18:49Z
2020-12-12T08:20:54Z,42.805,6.029,13.2984,4.59993,2470.18,2020-12-12T10:21:52Z
2020-12-12T08:23:57Z,42.805,6.029,13.2986,4.59991,2470.217,2020-12-12T10:24:56Z
2020-12-12T08:27:00Z,42.805,6.029,13.2981,4.59997,2470.217,2020-12-12T10:27:59Z
2020-12-12T08:30:03Z,42.805,6.029,13.2983,4.59997,2470.24,2020-12-12T10:31:02Z
2020-12-12T08:33:06Z,42.805,6.029,13.2978,4.59991,2470.203,2020-12-12T10:34:05Z
2020-12-12T08:36:09Z,42.805,6.029,13.2986,4.59998,2470.18,2020-12-12T10:37:08Z
2020-12-12T08:39:13Z,42.805,6.029,13.2981,4.59993,2470.203,2020-12-12T10:40:11Z
2020-12-12T08:42:16Z,42.805,6.029,13.2979,4.59992,2470.194,2020-12-12T10:43:14Z
2020-12-12T08:45:19Z,42.805,6.029,13.2982,4.59988,2470.231,2020-12-12T10:46:18Z
2020-12-12T08:48:22Z,42.805,6.029,13.2979,4.59990,2470.194,2020-12-12T10:49:21Z
2020-12-12T08:51:25Z,42.805,6.029,13.2984,4.60005,2470.203,2020-12-12T10:52:24Z
2020-12-12T08:54:28Z,42.805,6.029,13.2984,4.59996,2470.156,2020-12-12T10:55:27Z
2020-12-12T08:57:31Z,42.805,6.029,13.2983,4.59991,2470.18,2020-12-12T10:58:30Z
2020-12-12T09:00:34Z,42.805,6.029,13.2986,4.59994,2470.156,2020-12-12T11:01:33Z
2020-12-12T09:03:38Z,42.805,6.029,13.2987,4.60003,2470.194,2020-12-12T11:04:36Z
2020-12-12T09:06:41Z,42.805,6.029,13.2982,4.59999,2470.18,2020-12-12T11:07:39Z
2020-12-12T09:09:44Z,42.805,6.029,13.2981,4.59996,2470.156,2020-12-12T11:10:43Z
2020-12-12T09:12:47Z,42.805,6.029,13.2985,4.59994,2470.203,2020-12-12T11:13:46Z
2020-12-12T09:15:50Z,42.805,6.029,13.2982,4.59990,2470.18,2020-12-12T11:16:49Z
2020-12-12T09:18:53Z,42.805,6.029,13.2986,4.59994,2470.156,2020-12-12T11:19:52Z
2020-12-12T09:21:56Z,42.805,6.029,13.2979,4.59993,2470.217,2020-12-12T11:22:55Z
2020-12-12T09:25:00Z,42.805,6.029,13.2983,4.59994,2470.171,2020-12-12T11:25:58Z
2020-12-12T09:28:03Z,42.805,6.029,13.2979,4.59991,2470.194,2020-12-12T11:29:01Z
2020-12-12T09:31:06Z,42.805,6.029,13.2981,4.59990,2470.18,2020-12-12T11:32:04Z
2020-12-12T09:34:09Z,42.805,6.029,13.2987,4.59994,2470.18,2020-12-12T11:35:08Z
2020-12-12T09:37:12Z,42.805,6.029,13.2978,4.59986,2470.171,2020-12-12T11:38:11Z
2020-12-12T09:40:15Z,42.805,6.029,13.2980,4.59988,2470.156,2020-12-12T11:41:14Z
2020-12-12T09:43:18Z,42.805,6.029,13.2972,4.59993,2470.171,2020-12-12T11:44:17Z
2020-12-12T09:46:21Z,42.805,6.029,13.2981,4.59994,2470.171,2020-12-12T11:47:20Z
2020-12-12T09:49:25Z,42.805,6.029,13.2981,4.59996,2470.194,2020-12-12T11:50:23Z
2020-12-12T09:52:28Z,42.805,6.029,13.2983,4.59991,2470.171,2020-12-12T11:53:26Z
2020-12-12T09:55:31Z,42.805,6.029,13.2982,4.59991,2470.18,2020-12-12T11:56:29Z
2020-12-12T09:58:34Z,42.805,6.029,13.2989,4.59991,2470.18,2020-12-12T11:59:33Z
2020-12-12T10:01:37Z,42.805,6.029,13.2982,4.59989,2470.171,2020-12-12T12:02:36Z
2020-12-12T10:04:40Z,42.805,6.029,13.2986,4.59995,2470.133,2020-12-12T12:05:39Z
2020-12-12T10:07:43Z,42.805,6.029,13.2983,4.59996,2470.156,2020-12-12T12:08:42Z
2020-12-12T10:10:46Z,42.805,6.029,13.2979,4.59988,2470.133,2020-12-12T12:11:45Z
2020-12-12T10:13:50Z,42.805,6.029,13.2986,4.59992,2470.147,2020-12-12T12:14:48Z
2020-12-12T10:16:53Z,42.805,6.029,13.2979,4.59991,2470.133,2020-12-12T12:17:51Z
2020-12-12T10:19:56Z,42.805,6.029,13.2982,4.59991,2470.156,2020-12-12T12:20:55Z
2020-12-12T10:22:59Z,42.805,6.029,13.2989,4.60002,2470.156,2020-12-12T12:23:58Z
2020-12-12T10:26:02Z,42.805,6.029,13.2981,4.59996,2470.156,2020-12-12T12:27:01Z
2020-12-12T10:29:05Z,42.805,6.029,13.2989,4.59996,2470.171,2020-12-12T12:30:04Z
2020-12-12T10:32:08Z,42.805,6.029,13.2982,4.59997,2470.147,2020-12-12T12:33:07Z
2020-12-12T10:35:11Z,42.805,6.029,13.2982,4.59994,2470.171,2020-12-12T12:36:10Z
2020-12-12T10:38:15Z,42.805,6.029,13.2986,4.59992,2470.147,2020-12-12T12:39:13Z
2020-12-12T10:41:18Z,42.805,6.029,13.2983,4.59995,2470.11,2020-12-12T12:42:16Z
2020-12-12T10:44:21Z,42.805,6.029,13.2979,4.59994,2470.147,2020-12-12T12:45:20Z
2020-12-12T10:47:24Z,42.805,6.029,13.2980,4.59992,2470.087,2020-12-12T12:48:23Z
2020-12-12T10:50:27Z,42.805,6.029,13.2985,4.59994,2470.087,2020-12-12T12:51:26Z
2020-12-12T10:53:30Z,42.805,6.029,13.2982,4.59991,2470.133,2020-12-12T12:54:29Z
2020-12-12T10:56:33Z,42.805,6.029,13.2985,4.59991,2470.147,2020-12-12T12:57:32Z
2020-12-12T10:59:36Z,42.805,6.029,13.2980,4.59996,2470.147,2020-12-12T13:00:35Z
2020-12-12T11:02:40Z,42.805,6.029,13.2981,4.59990,2470.087,2020-12-12T13:03:38Z
2020-12-12T11:05:43Z,42.805,6.029,13.2983,4.59995,2470.087,2020-12-12T13:06:41Z
2020-12-12T11:08:46Z,42.805,6.029,13.2982,4.59994,2470.1,2020-12-12T13:09:45Z
2020-12-12T11:11:49Z,42.805,6.029,13.2988,4.59996,2470.11,2020-12-12T13:12:48Z
2020-12-12T11:14:52Z,42.805,6.029,13.2976,4.59996,2470.1,2020-12-12T13:15:51Z
2020-12-12T11:17:55Z,42.805,6.029,13.2982,4.59991,2470.087,2020-12-12T13:18:54Z
2020-12-12T11:20:58Z,42.805,6.029,13.2984,4.59986,2470.087,2020-12-12T13:21:57Z
2020-12-12T11:24:02Z,42.805,6.029,13.2982,4.59999,2470.1,2020-12-12T13:25:00Z
2020-12-12T11:27:05Z,42.805,6.029,13.2982,4.59999,2470.147,2020-12-12T13:28:03Z
2020-12-12T11:30:08Z,42.805,6.029,13.2976,4.59997,2470.077,2020-12-12T13:31:06Z
2020-12-12T11:33:11Z,42.805,6.029,13.2983,4.59992,2470.063,2020-12-12T13:34:10Z
2020-12-12T11:36:14Z,42.805,6.029,13.2982,4.59992,2470.063,2020-12-12T13:37:13Z
2020-12-12T11:39:17Z,42.805,6.029,13.2985,4.59996,2470.1,2020-12-12T13:40:16Z
2020-12-12T11:42:20Z,42.805,6.029,13.2983,4.59999,2470.087,2020-12-12T13:43:19Z
2020-12-12T11:45:23Z,42.805,6.029,13.2983,4.59996,2470.124,2020-12-12T13:46:22Z
2020-12-12T11:48:27Z,42.805,6.029,13.2981,4.59995,2470.087,2020-12-12T13:49:25Z
2020-12-12T11:51:30Z,42.805,6.029,13.2990,4.60009,2470.11,2020-12-12T13:52:28Z
2020-12-12T11:54:33Z,42.805,6.029,13.2982,4.59991,2470.087,2020-12-12T13:55:32Z
2020-12-12T11:57:36Z,42.805,6.029,13.2982,4.60002,2470.063,2020-12-12T13:58:35Z
2020-12-12T12:00:39Z,42.805,6.029,13.2982,4.59991,2470.11,2020-12-12T14:01:38Z
2020-12-12T12:03:42Z,42.805,6.029,13.2983,4.59999,2470.1,2020-12-12T14:04:41Z
2020-12-12T12:06:45Z,42.805,6.029,13.2980,4.60002,2470.077,2020-12-12T14:07:44Z
2020-12-12T12:09:48Z,42.805,6.029,13.2980,4.59991,2470.11,2020-12-12T14:10:47Z
2020-12-12T12:12:52Z,42.805,6.029,13.2983,4.59993,2470.11,2020-12-12T14:13:50Z
2020-12-12T12:15:55Z,42.805,6.029,13.2980,4.59993,2470.11,2020-12-12T14:16:53Z
2020-12-12T12:18:58Z,42.805,6.029,13.2986,4.60003,2470.124,2020-12-12T14:19:57Z
2020-12-12T12:22:01Z,42.805,6.029,13.2983,4.59999,2470.11,2020-12-12T14:23:00Z
2020-12-12T12:25:04Z,42.805,6.029,13.2988,4.59996,2470.1,2020-12-12T14:26:03Z
2020-12-12T12:28:07Z,42.805,6.029,13.2982,4.60002,2470.087,2020-12-12T14:29:06Z
2020-12-12T12:31:10Z,42.805,6.029,13.2983,4.59999,2470.063,2020-12-12T14:32:09Z
2020-12-12T12:34:13Z,42.805,6.029,13.2986,4.59999,2470.087,2020-12-12T14:35:12Z
2020-12-12T12:37:17Z,42.805,6.029,13.2985,4.59994,2470.1,2020-12-12T14:38:15Z
2020-12-12T12:40:20Z,42.805,6.029,13.2986,4.59993,2470.11,2020-12-12T14:41:18Z
2020-12-12T12:43:23Z,42.805,6.029,13.2983,4.59994,2470.087,2020-12-12T14:44:22Z
2020-12-12T12:46:26Z,42.805,6.029,13.2982,4.59999,2470.124,2020-12-12T14:47:25Z
2020-12-12T12:49:29Z,42.805,6.029,13.2985,4.59991,2470.124,2020-12-12T14:50:28Z
2020-12-12T12:52:32Z,42.805,6.029,13.2980,4.60001,2470.1,2020-12-12T14:53:31Z
2020-12-12T12:55:35Z,42.805,6.029,13.2975,4.59999,2470.124,2020-12-12T14:56:34Z
2020-12-12T12:58:39Z,42.805,6.029,13.2982,4.59993,2470.124,2020-12-12T14:59:37Z
2020-12-12T13:01:42Z,42.805,6.029,13.2982,4.59996,2470.11,2020-12-12T15:02:40Z
2020-12-12T13:04:45Z,42.805,6.029,13.2982,4.59990,2470.11,2020-12-12T15:05:43Z
2020-12-12T13:07:48Z,42.805,6.029,13.2982,4.59995,2470.11,2020-12-12T15:08:47Z
2020-12-12T13:10:51Z,42.805,6.029,13.2985,4.59993,2470.087,2020-12-12T15:11:50Z
2020-12-12T13:13:54Z,42.805,6.029,13.2983,4.59995,2470.147,2020-12-12T15:14:53Z
2020-12-12T13:16:57Z,42.805,6.029,13.2979,4.59996,2470.11,2020-12-12T15:17:56Z
2020-12-12T13:20:00Z,42.805,6.029,13.2981,4.59999,2470.11,2020-12-12T15:20:59Z
2020-12-12T13:23:04Z,42.805,6.029,13.2986,4.59996,2470.133,2020-12-12T15:24:02Z
2020-12-12T13:26:07Z,42.805,6.029,13.2986,4.60009,2470.11,2020-12-12T15:27:05Z
2020-12-12T13:29:10Z,42.805,6.029,13.2987,4.59992,2470.124,2020-12-12T15:30:08Z
2020-12-12T13:32:13Z,42.805,6.029,13.2982,4.59993,2470.147,2020-12-12T15:33:12Z
2020-12-12T13:35:16Z,42.805,6.029,13.2986,4.60000,2470.124,2020-12-12T15:36:15Z
2020-12-12T13:38:19Z,42.805,6.029,13.2987,4.59998,2470.147,2020-12-12T15:39:18Z
2020-12-12T13:41:22Z,42.805,6.029,13.2991,4.60002,2470.124,2020-12-12T15:42:21Z
2020-12-12T13:44:25Z,42.805,6.029,13.2986,4.59999,2470.133,2020-12-12T15:45:24Z
2020-12-12T13:47:29Z,42.805,6.029,13.2981,4.59994,2470.147,2020-12-12T15:48:27Z
2020-12-12T13:50:32Z,42.805,6.029,13.2982,4.59991,2470.156,2020-12-12T15:51:30Z
2020-12-12T13:53:35Z,42.805,6.029,13.2985,4.59993,2470.133,2020-12-12T15:54:33Z
2020-12-12T13:56:38Z,42.805,6.029,13.2979,4.59994,2470.133,2020-12-12T15:57:37Z
2020-12-12T13:59:41Z,42.805,6.029,13.2978,4.59990,2470.133,2020-12-12T16:00:40Z
2020-12-12T14:02:44Z,42.805,6.029,13.2981,4.59999,2470.171,2020-12-12T16:03:43Z
2020-12-12T14:05:47Z,42.805,6.029,13.2980,4.59996,2470.156,2020-12-12T16:06:46Z
2020-12-12T14:08:50Z,42.805,6.029,13.2982,4.59994,2470.156,2020-12-12T16:09:49Z
2020-12-12T14:11:54Z,42.805,6.029,13.2987,4.59993,2470.156,2020-12-12T16:12:52Z
2020-12-12T14:14:57Z,42.805,6.029,13.2984,4.59993,2470.156,2020-12-12T16:15:55Z
2020-12-12T14:18:00Z,42.805,6.029,13.2983,4.60003,2470.156,2020-12-12T16:18:59Z
2020-12-12T14:21:03Z,42.805,6.029,13.2987,4.60007,2470.143,2020-12-12T16:22:02Z
2020-12-12T14:24:06Z,42.805,6.029,13.2983,4.59993,2470.194,2020-12-12T16:25:05Z
2020-12-12T14:27:09Z,42.805,6.029,13.2981,4.59993,2470.156,2020-12-12T16:28:08Z
2020-12-12T14:30:12Z,42.805,6.029,13.2979,4.59990,2470.194,2020-12-12T16:31:11Z
2020-12-12T14:33:15Z,42.805,6.029,13.2984,4.59991,2470.24,2020-12-12T16:34:14Z
2020-12-12T14:36:19Z,42.805,6.029,13.2980,4.59993,2470.194,2020-12-12T16:37:17Z
2020-12-12T14:39:22Z,42.805,6.029,13.2979,4.59993,2470.203,2020-12-12T16:40:20Z
2020-12-12T14:42:25Z,42.805,6.029,13.2984,4.59991,2470.18,2020-12-12T16:43:24Z
2020-12-12T14:45:28Z,42.805,6.029,13.2977,4.59991,2470.203,2020-12-12T16:46:27Z
2020-12-12T14:48:31Z,42.805,6.029,13.2983,4.59991,2470.18,2020-12-12T16:49:30Z
2020-12-12T14:51:34Z,42.805,6.029,13.2986,4.60006,2470.194,2020-12-12T16:52:33Z
2020-12-12T14:54:37Z,42.805,6.029,13.2981,4.59996,2470.203,2020-12-12T16:55:36Z
2020-12-12T14:57:41Z,42.805,6.029,13.2980,4.59990,2470.194,2020-12-12T16:58:39Z
2020-12-12T15:00:44Z,42.805,6.029,13.2982,4.59989,2470.217,2020-12-12T17:01:42Z